{"data":{"norad_id":69988,"intl_designator":"2026-159P","name":"STARLINK-38064","alt_names":[],"object_type":"PAYLOAD","status":"ACTIVE","operator":null,"country":"US","launch_date":"2026-07-11","launch_site_code":"AFWTR","launch_vehicle":null,"mission":null,"orbit_class":"UNKNOWN","rcs_meters":null,"size_class":null,"mass_kg":null,"dimensions":null,"purposes":["comms"],"wikipedia_slug":null,"has_3d_model":false,"image_url":null,"decayed_at":null,"tle_current":{"epoch":"2026-09-20T00:00:02.998944Z","epoch_age_seconds":61019,"freshness":"FRESH","line1":"1 69988U 26159P   26263.00003471  .00096178  00000+0  17510-2 0  9993","line2":"2 69988  97.2846 104.8251 0001504  96.1742 153.2675 15.49148527  6021","mean_motion":15.49148527,"eccentricity":0.0001504,"inclination_deg":97.2846,"raan_deg":104.8251,"arg_perigee_deg":96.1742,"mean_anomaly_deg":153.2675,"bstar":0.001751,"rev_number":602,"period_min":92.95428907573,"perigee_km":418.19333546089,"apogee_km":420.23797914021,"semimajor_km":6797.3526573006,"source":"CELESTRAK","updated_at":"2026-09-20T09:00:44.330485Z"}}}